Tracking 28766 objects as of 14-Apr-2024
HD Live streaming from Space Station
objects crossing your sky now

STARLINK-2338

Track STARLINK-2338 now!
10-day predictions
STARLINK-2338 is classified as:


NORAD ID: 47793
Int'l Code: 2021-018G
Perigee: 553.4 km
Apogee: 555.3 km
Inclination: 53.1 °
Period: 95.6 minutes
Semi major axis: 6925 km
RCS: Unknown
Launch date: March 11, 2021
Source: United States (US)
Launch site: AIR FORCE EASTERN TEST RANGE (AFETR)
Your satellite tracking list
Your tracking list is empty




NASA's NSSDC Master Catalog

Two Line Element Set (TLE):
1 47793U 21018G   24104.33545703  .00000127  00000-0  27429-4 0  9991
2 47793  53.0535 113.1830 0001388  85.6300 274.4848 15.06396401172060
Source of the keplerian elements: AFSPC